Location: Asheville, NC
(35.6000°N, 82.5500°W)
Time: 14:57:27
(UTC-05:00)

CUBEBUG 2 - Pass Details

Date: 06 January 2018
Orbit: 587 x 699 km, 97.6° (Epoch: 16 January)

Event Time Altitude Azimuth Distance (km) Brightness Sun altitude
Rises 18:05:44 0° 131° (SE) 2,808 ? -7.0°
Reaches altitude 10° 18:08:23 10° 112° (ESE) 1,920 ? -7.5°
Maximum altitude 18:11:15 18° 68° (ENE) 1,465 ? -8.1°
Drops below altitude 10° 18:14:11 10° 24° (NNE) 1,960 ? -8.6°
Sets 18:16:55 0° 7° (N) 2,888 ? -9.1°
